Home   Weather   Saint-Petersburg   Past weeks

Flag for Russia Past Weather in Saint-Petersburg, Russia — Yesterday and Last 2 Weeks

Now
25 °F

Overcast.


Feels Like: 11 °F
Forecast: 13 / 22 °F
Wind: 17 mph from Northwest

Location: St. Petersburg

Current Time: Dec 10, 2016 at 8:00:16 am

Latest Report: Dec 10, 2016 at 7:00 am


Visibility: N/A

Pressure: 29.53 "Hg

Humidity: 74%

Dew Point: 18 °F

Location of Saint-PetersburgLocation

Past Weather in Saint-Petersburg — Graph

°F

Saint-Petersburg Temperature Yesterday

Maximum temperature yesterday: 36 °F (at 1:30 pm)
Minimum temperature yesterday: 30 °F (at 1:30 am)
Average temperature yesterday: 33 °F

High & Low Weather Summary for the Past Weeks

 TemperatureHumidityPressure
High39 °F (Dec 5, 10:00 am)100% (Nov 25, 6:30 am)30.27 "Hg (Nov 25, 6:30 am)
Low9 °F (Dec 7, 1:00 am)64% (Dec 10, 2:30 am)28.94 "Hg (Nov 27, 2:30 am)
Average27 °F89%29.62 "Hg
* Reported Nov 25 6:00 am — Dec 10 6:30 am, Saint-Petersburg, Weather by CustomWeather, © 2016

Note: Actual official high and low records may vary slightly from our data, if they occured in-between our weather recording intervals... More about our weather records

Advertising

Saint-Petersburg Weather History for the Previous 24 Hours

Scroll right to see more
 ConditionsComfort  
Time TempWeatherWind HumidityBarometerVisibility
6:30 am
Sat, Dec 10
25 °FOvercast.17 mph80%29.53 "HgN/A
6:00 am25 °FOvercast.17 mph74%29.53 "HgN/A
5:30 am25 °FPassing clouds.22 mph74%29.50 "HgN/A
5:00 am25 °FPassing clouds.24 mph74%29.50 "HgN/A
4:30 am25 °FPassing clouds.24 mph74%29.50 "HgN/A
4:00 am25 °FPassing clouds.22 mph74%29.50 "HgN/A
3:30 am25 °FClear.22 mph74%29.47 "Hg10 mi
3:00 am27 °FClear.20 mph69%29.47 "Hg10 mi
2:30 am27 °FClear.22 mph64%29.47 "Hg10 mi
2:00 am27 °FClear.20 mph69%29.47 "Hg10 mi
1:30 am27 °FPassing clouds.22 mph74%29.47 "HgN/A
1:00 am28 °FPassing clouds.17 mph69%29.47 "HgN/A
12:30 am28 °FPassing clouds.17 mph74%29.47 "HgN/A
12:00 am28 °FPassing clouds.17 mph80%29.47 "HgN/A
11:30 pm
Fri, Dec 9
30 °FPassing clouds.17 mph80%29.45 "HgN/A
11:00 pm30 °FPassing clouds.15 mph80%29.45 "HgN/A
10:30 pm30 °FPassing clouds.17 mph80%29.45 "HgN/A
10:00 pm32 °FPassing clouds.17 mph80%29.42 "HgN/A
9:30 pm32 °FMostly cloudy.17 mph93%29.42 "HgN/A
9:00 pm32 °FPartly cloudy.15 mph87%29.42 "HgN/A
8:30 pm32 °FPartly cloudy.17 mph93%29.39 "HgN/A
8:00 pm32 °FOvercast.13 mph93%29.39 "HgN/A
7:30 pm34 °FOvercast.17 mph87%29.39 "HgN/A
7:00 pm34 °FOvercast.20 mph81%29.39 "HgN/A
6:30 pm32 °FSnow flurries. Overcast.17 mph93%29.39 "Hg2 mi
6:00 pm32 °FSnow flurries. Overcast.20 mph93%29.39 "Hg3 mi
5:30 pm34 °FPassing clouds.15 mph87%29.36 "HgN/A
5:00 pm34 °FPassing clouds.13 mph87%29.36 "HgN/A
4:30 pm34 °FPassing clouds.13 mph87%29.36 "HgN/A
4:00 pm34 °FPassing clouds.13 mph87%29.36 "HgN/A
3:30 pm34 °FSnow flurries. Partly sunny.10 mph87%29.36 "HgN/A
3:00 pm34 °FPartly sunny.15 mph93%29.36 "HgN/A
2:30 pm34 °FBroken clouds.15 mph93%29.33 "HgN/A
2:00 pm34 °FSprinkles. Broken clouds.20 mph93%29.33 "Hg5 mi
1:30 pm36 °FLight rain. Partly sunny.15 mph93%29.33 "Hg5 mi
1:00 pm34 °FLight rain. Partly sunny.13 mph100%29.33 "HgN/A
12:30 pm34 °FLight rain. Partly sunny.10 mph100%29.33 "HgN/A
12:00 pm34 °FDrizzle. Fog.10 mph100%29.33 "Hg3 mi
11:30 am34 °FDrizzle. Fog.10 mph100%29.33 "Hg2 mi
11:00 am34 °FDrizzle. Fog.10 mph100%29.36 "Hg2 mi
10:30 am34 °FDrizzle. Low clouds.10 mph93%29.36 "Hg5 mi
10:00 am34 °FDrizzle. Low clouds.8 mph93%29.36 "Hg2 mi
9:30 am34 °FDrizzle. Low clouds.8 mph93%29.36 "Hg3 mi
9:00 am34 °FLow clouds.10 mph93%29.36 "HgN/A
8:30 am34 °FLow clouds.8 mph93%29.39 "HgN/A
Weather by CustomWeather, © 2016

See weather overviewHow to use our weather pages